Location: Quaker Farms
(41.4276°N, 73.1557°W)
Time: 01:47:51
(UTC+00:00)

Altair - Pass Details

Date: 24 June 2021
Orbit: 1501 x 1682 km, 47.2° (Epoch: 23 July)

Event Time Altitude Azimuth Distance (km) Brightness Sun altitude
Rises 21:43:09 0° 294° (WNW) 4,761 11.2 28.4°
Reaches altitude 10° 21:46:11 10° 295° (WNW) 3,799 11.0 27.8°
Maximum altitude 21:55:58 87° 26° (NNE) 1,640 8.1 26.0°
Drops below altitude 10° 22:06:04 10° 116° (ESE) 3,919 9.2 24.2°
Sets 22:09:15 0° 117° (ESE) 4,917 9.6 23.6°
